Time,TemperatureF,DewpointF,PressureIn,WindDirection,WindDirectionDegrees,WindSpeedMPH,WindSpeedGustMPH,Humidity,HourlyPrecipIn,Conditions,Clouds,dailyrainin,SoftwareType,DateUTC
2013-07-04 00:05:00,61.6,61.0,30.22,ESE,113,0.0,0.0,98,0.00,,,0.00,Wunderground v.1.15,2013-07-04 04:05:00,
2013-07-04 00:10:00,61.7,61.1,30.22,ESE,113,0.0,0.0,98,0.00,,,0.00,Wunderground v.1.15,2013-07-04 04:10:00,
2013-07-04 00:15:00,61.7,61.1,30.22,ESE,113,0.0,0.0,98,0.00,,,0.00,Wunderground v.1.15,2013-07-04 04:15:00,
2013-07-04 00:20:00,61.7,61.1,30.22,ESE,113,0.0,0.0,98,0.00,,,0.00,Wunderground v.1.15,2013-07-04 04:20:00,
2013-07-04 00:25:00,61.8,61.2,30.22,ESE,113,0.0,0.0,98,0.00,,,0.00,Wunderground v.1.15,2013-07-04 04:25:00,
2013-07-04 00:30:00,61.8,61.2,30.22,ESE,113,0.0,0.0,98,0.00,,,0.00,Wunderground v.1.15,2013-07-04 04:30:00,
2013-07-04 00:40:00,61.8,61.2,30.21,ESE,113,0.0,0.0,98,0.00,,,0.01,Wunderground v.1.15,2013-07-04 04:40:00,
2013-07-04 00:45:00,61.8,61.2,30.22,ESE,113,0.0,0.0,98,0.06,,,0.02,Wunderground v.1.15,2013-07-04 04:45:00,
2013-07-04 00:49:00,61.8,61.2,30.21,ESE,113,0.0,0.0,98,0.07,,,0.03,Wunderground v.1.15,2013-07-04 04:49:00,
2013-07-04 00:55:00,61.9,61.3,30.20,ESE,113,0.0,1.0,98,0.19,,,0.04,Wunderground v.1.15,2013-07-04 04:55:00,
2013-07-04 00:59:00,61.9,61.3,30.20,ESE,113,0.0,0.0,98,0.09,,,0.05,Wunderground v.1.15,2013-07-04 04:59:00,
2013-07-04 01:05:00,61.9,61.3,30.20,ESE,113,0.0,0.0,98,0.09,,,0.05,Wunderground v.1.15,2013-07-04 05:05:00,
2013-07-04 01:09:00,61.9,61.3,30.19,ESE,113,0.0,0.0,98,0.10,,,0.06,Wunderground v.1.15,2013-07-04 05:09:00,
2013-07-04 01:14:00,61.9,61.3,30.21,ESE,113,0.0,1.0,98,0.06,,,0.06,Wunderground v.1.15,2013-07-04 05:14:00,
2013-07-04 01:20:00,61.9,61.3,30.21,ESE,113,0.0,1.0,98,0.04,,,0.06,Wunderground v.1.15,2013-07-04 05:20:00,
2013-07-04 01:25:00,62.0,61.4,30.20,ESE,113,0.0,1.0,98,0.00,,,0.06,Wunderground v.1.15,2013-07-04 05:25:00,
2013-07-04 01:30:00,62.1,61.5,30.20,ESE,113,0.0,0.0,98,0.00,,,0.06,Wunderground v.1.15,2013-07-04 05:30:00,
2013-07-04 01:40:00,62.1,61.5,30.20,ESE,113,0.0,0.0,98,0.00,,,0.06,Wunderground v.1.15,2013-07-04 05:40:00,
2013-07-04 01:45:00,62.1,61.5,30.20,ESE,113,0.0,0.0,98,0.00,,,0.06,Wunderground v.1.15,2013-07-04 05:45:00,
2013-07-04 01:49:00,62.0,61.4,30.20,ESE,113,0.0,0.0,98,0.00,,,0.06,Wunderground v.1.15,2013-07-04 05:49:00,
2013-07-04 01:54:00,62.0,61.4,30.19,ESE,113,1.0,1.0,98,0.00,,,0.06,Wunderground v.1.15,2013-07-04 05:54:00,
2013-07-04 01:59:00,62.1,61.5,30.19,ESE,113,1.0,1.0,98,0.00,,,0.06,Wunderground v.1.15,2013-07-04 05:59:00,
2013-07-04 02:05:00,62.1,61.5,30.20,ESE,113,1.0,1.0,98,0.00,,,0.06,Wunderground v.1.15,2013-07-04 06:05:00,
2013-07-04 02:14:00,62.1,61.5,30.19,ESE,113,0.0,1.0,98,0.00,,,0.06,Wunderground v.1.15,2013-07-04 06:14:00,
2013-07-04 02:20:00,62.1,61.5,30.19,ESE,113,0.0,0.0,98,0.00,,,0.06,Wunderground v.1.15,2013-07-04 06:20:00,
2013-07-04 02:25:00,62.1,61.5,30.19,ESE,113,0.0,0.0,98,0.00,,,0.07,Wunderground v.1.15,2013-07-04 06:25:00,
2013-07-04 02:30:00,62.1,61.5,30.20,ESE,113,0.0,0.0,98,0.12,,,0.08,Wunderground v.1.15,2013-07-04 06:30:00,
2013-07-04 02:35:00,62.1,61.5,30.19,ESE,113,0.0,0.0,98,0.11,,,0.09,Wunderground v.1.15,2013-07-04 06:35:00,
2013-07-04 02:40:00,62.2,61.6,30.19,ESE,113,0.0,0.0,98,0.13,,,0.10,Wunderground v.1.15,2013-07-04 06:40:00,
2013-07-04 02:45:00,62.1,61.5,30.19,ESE,113,0.0,0.0,98,0.91,,,0.14,Wunderground v.1.15,2013-07-04 06:45:00,
2013-07-04 02:49:00,62.2,61.6,30.19,ESE,113,0.0,0.0,98,0.37,,,0.18,Wunderground v.1.15,2013-07-04 06:49:00,
2013-07-04 02:54:00,62.2,61.6,30.19,ESE,113,0.0,0.0,98,0.51,,,0.24,Wunderground v.1.15,2013-07-04 06:54:00,
2013-07-04 02:59:00,62.2,61.6,30.19,ESE,113,0.0,0.0,98,0.10,,,0.24,Wunderground v.1.15,2013-07-04 06:59:00,
2013-07-04 03:05:00,62.3,61.7,30.19,ESE,113,0.0,1.0,98,0.15,,,0.26,Wunderground v.1.15,2013-07-04 07:05:00,
2013-07-04 03:09:00,62.2,61.6,30.19,ESE,113,1.0,1.0,98,0.20,,,0.27,Wunderground v.1.15,2013-07-04 07:09:00,
2013-07-04 03:14:00,62.2,61.6,30.19,ESE,113,1.0,1.0,98,0.13,,,0.28,Wunderground v.1.15,2013-07-04 07:14:00,
2013-07-04 03:20:00,62.2,61.6,30.19,ESE,113,1.0,1.0,98,0.70,,,0.37,Wunderground v.1.15,2013-07-04 07:20:00,
2013-07-04 03:25:00,62.2,61.6,30.19,ESE,113,0.0,1.0,98,0.77,,,0.48,Wunderground v.1.15,2013-07-04 07:25:00,
2013-07-04 03:30:00,62.2,61.6,30.19,ESE,113,0.0,1.0,98,0.25,,,0.51,Wunderground v.1.15,2013-07-04 07:30:00,
2013-07-04 03:35:00,62.2,61.6,30.19,ESE,113,0.0,1.0,98,0.15,,,0.52,Wunderground v.1.15,2013-07-04 07:35:00,
2013-07-04 03:40:00,62.2,61.6,30.20,ESE,113,0.0,0.0,98,0.07,,,0.52,Wunderground v.1.15,2013-07-04 07:40:00,
2013-07-04 03:45:00,62.2,61.6,30.20,ESE,113,0.0,0.0,98,0.05,,,0.53,Wunderground v.1.15,2013-07-04 07:45:00,
2013-07-04 03:49:00,62.3,61.7,30.19,ESE,113,0.0,0.0,98,0.17,,,0.54,Wunderground v.1.15,2013-07-04 07:49:00,
2013-07-04 03:54:00,62.3,61.7,30.19,ESE,113,0.0,0.0,98,0.12,,,0.55,Wunderground v.1.15,2013-07-04 07:54:00,
2013-07-04 04:00:00,62.3,61.7,30.19,ESE,113,0.0,0.0,98,0.12,,,0.56,Wunderground v.1.15,2013-07-04 08:00:00,
2013-07-04 04:05:00,62.3,61.7,30.18,ESE,113,0.0,1.0,98,0.09,,,0.57,Wunderground v.1.15,2013-07-04 08:05:00,
2013-07-04 04:10:00,62.3,61.7,30.18,ESE,113,0.0,0.0,98,0.10,,,0.58,Wunderground v.1.15,2013-07-04 08:10:00,
2013-07-04 04:15:00,62.3,61.7,30.18,ESE,113,0.0,0.0,98,0.08,,,0.58,Wunderground v.1.15,2013-07-04 08:15:00,
2013-07-04 04:20:00,62.3,61.7,30.18,ESE,113,0.0,1.0,98,0.05,,,0.58,Wunderground v.1.15,2013-07-04 08:20:00,
2013-07-04 04:25:00,62.3,61.7,30.19,ESE,113,0.0,1.0,98,0.00,,,0.58,Wunderground v.1.15,2013-07-04 08:25:00,
2013-07-04 04:30:00,62.3,61.7,30.18,ESE,113,0.0,0.0,98,0.00,,,0.58,Wunderground v.1.15,2013-07-04 08:30:00,
2013-07-04 04:35:00,62.3,61.7,30.18,ESE,113,0.0,1.0,98,0.00,,,0.58,Wunderground v.1.15,2013-07-04 08:35:00,
2013-07-04 04:40:00,62.3,61.7,30.18,ESE,113,0.0,0.0,98,0.00,,,0.58,Wunderground v.1.15,2013-07-04 08:40:00,
2013-07-04 04:45:00,62.3,61.7,30.18,ESE,113,0.0,0.0,98,0.00,,,0.58,Wunderground v.1.15,2013-07-04 08:45:00,
2013-07-04 04:55:00,62.3,61.7,30.18,ESE,113,0.0,0.0,98,0.00,,,0.58,Wunderground v.1.15,2013-07-04 08:55:00,
2013-07-04 05:00:00,62.4,62.1,30.19,ESE,113,0.0,0.0,99,0.00,,,0.58,Wunderground v.1.15,2013-07-04 09:00:00,
2013-07-04 05:05:00,62.4,61.8,30.18,ESE,113,0.0,0.0,98,0.00,,,0.58,Wunderground v.1.15,2013-07-04 09:05:00,
2013-07-04 05:10:00,62.5,61.9,30.19,ESE,113,0.0,0.0,98,0.00,,,0.58,Wunderground v.1.15,2013-07-04 09:10:00,
2013-07-04 05:15:00,62.5,61.9,30.19,ESE,113,0.0,0.0,98,0.00,,,0.58,Wunderground v.1.15,2013-07-04 09:15:00,
2013-07-04 05:25:00,62.5,61.9,30.19,ESE,113,0.0,0.0,98,0.00,,,0.58,Wunderground v.1.15,2013-07-04 09:25:00,
2013-07-04 05:29:00,62.6,62.0,30.19,ESE,113,0.0,0.0,98,0.00,,,0.58,Wunderground v.1.15,2013-07-04 09:29:00,
2013-07-04 05:35:00,62.5,61.9,30.19,ESE,113,0.0,0.0,98,0.00,,,0.58,Wunderground v.1.15,2013-07-04 09:35:00,
2013-07-04 05:40:00,62.6,62.0,30.19,ESE,113,0.0,0.0,98,0.00,,,0.58,Wunderground v.1.15,2013-07-04 09:40:00,
2013-07-04 05:50:00,62.6,62.0,30.19,ESE,113,0.0,0.0,98,0.00,,,0.58,Wunderground v.1.15,2013-07-04 09:50:00,
2013-07-04 05:55:00,62.6,62.0,30.19,ESE,113,0.0,0.0,98,0.00,,,0.58,Wunderground v.1.15,2013-07-04 09:55:00,
2013-07-04 06:05:00,62.5,61.9,30.19,ESE,113,0.0,0.0,98,0.00,,,0.58,Wunderground v.1.15,2013-07-04 10:05:00,
2013-07-04 06:10:00,62.5,61.9,30.19,ESE,113,0.0,0.0,98,0.00,,,0.58,Wunderground v.1.15,2013-07-04 10:10:00,
2013-07-04 06:15:00,62.5,61.9,30.19,ESE,113,0.0,0.0,98,0.00,,,0.58,Wunderground v.1.15,2013-07-04 10:15:00,
2013-07-04 06:19:00,62.6,62.0,30.20,ESE,113,0.0,0.0,98,0.00,,,0.58,Wunderground v.1.15,2013-07-04 10:19:00,
2013-07-04 06:25:00,62.6,62.0,30.20,ESE,113,0.0,0.0,98,0.00,,,0.58,Wunderground v.1.15,2013-07-04 10:25:00,
2013-07-04 06:30:00,62.6,62.0,30.20,ESE,113,0.0,0.0,98,0.00,,,0.58,Wunderground v.1.15,2013-07-04 10:30:00,
2013-07-04 06:35:00,62.7,62.1,30.20,ESE,113,0.0,0.0,98,0.00,,,0.58,Wunderground v.1.15,2013-07-04 10:35:00,
2013-07-04 06:40:00,62.6,62.0,30.20,ESE,113,0.0,0.0,98,0.00,,,0.58,Wunderground v.1.15,2013-07-04 10:40:00,
2013-07-04 06:45:00,62.7,62.1,30.20,ESE,113,0.0,0.0,98,0.00,,,0.58,Wunderground v.1.15,2013-07-04 10:45:00,
2013-07-04 06:50:00,62.7,62.1,30.20,ESE,113,0.0,0.0,98,0.00,,,0.58,Wunderground v.1.15,2013-07-04 10:50:00,
2013-07-04 06:55:00,62.7,62.1,30.20,ESE,113,0.0,0.0,98,0.00,,,0.58,Wunderground v.1.15,2013-07-04 10:55:00,
2013-07-04 07:00:00,62.8,62.5,30.20,ESE,113,0.0,0.0,99,0.00,,,0.58,Wunderground v.1.15,2013-07-04 11:00:00,
2013-07-04 07:05:00,62.9,62.6,30.21,ESE,113,0.0,0.0,99,0.00,,,0.58,Wunderground v.1.15,2013-07-04 11:05:00,
2013-07-04 07:09:00,62.9,62.6,30.21,ESE,113,0.0,0.0,99,0.00,,,0.58,Wunderground v.1.15,2013-07-04 11:09:00,
2013-07-04 07:14:00,63.0,62.7,30.21,ESE,113,0.0,0.0,99,0.00,,,0.59,Wunderground v.1.15,2013-07-04 11:14:00,
2013-07-04 07:20:00,63.0,62.4,30.21,ESE,113,0.0,0.0,98,0.00,,,0.59,Wunderground v.1.15,2013-07-04 11:20:00,
2013-07-04 07:25:00,63.0,62.4,30.22,ESE,113,0.0,0.0,98,0.00,,,0.59,Wunderground v.1.15,2013-07-04 11:25:00,
2013-07-04 07:30:00,63.1,62.5,30.21,ESE,113,0.0,0.0,98,0.00,,,0.59,Wunderground v.1.15,2013-07-04 11:30:00,
2013-07-04 07:35:00,63.1,62.5,30.22,ESE,113,0.0,0.0,98,0.00,,,0.59,Wunderground v.1.15,2013-07-04 11:35:00,
2013-07-04 07:40:00,63.2,62.6,30.22,ESE,113,0.0,0.0,98,0.00,,,0.59,Wunderground v.1.15,2013-07-04 11:40:00,
2013-07-04 07:45:00,63.2,62.6,30.22,ESE,113,0.0,0.0,98,0.00,,,0.59,Wunderground v.1.15,2013-07-04 11:45:00,
2013-07-04 07:49:00,63.3,62.7,30.22,ESE,113,0.0,0.0,98,0.00,,,0.59,Wunderground v.1.15,2013-07-04 11:49:00,
2013-07-04 07:54:00,63.3,62.7,30.22,ESE,113,0.0,0.0,98,0.00,,,0.59,Wunderground v.1.15,2013-07-04 11:54:00,
2013-07-04 07:59:00,63.4,62.8,30.23,ESE,113,0.0,0.0,98,0.00,,,0.59,Wunderground v.1.15,2013-07-04 11:59:00,
2013-07-04 08:05:00,63.4,62.8,30.23,ESE,113,0.0,0.0,98,0.00,,,0.59,Wunderground v.1.15,2013-07-04 12:05:00,
2013-07-04 08:09:00,63.5,62.9,30.23,ESE,113,0.0,0.0,98,0.00,,,0.59,Wunderground v.1.15,2013-07-04 12:09:00,
2013-07-04 08:14:00,63.5,62.9,30.23,ESE,113,0.0,0.0,98,0.00,,,0.60,Wunderground v.1.15,2013-07-04 12:14:00,
2013-07-04 08:20:00,63.6,63.0,30.23,ESE,113,0.0,0.0,98,1.88,,,0.64,Wunderground v.1.15,2013-07-04 12:20:00,
2013-07-04 08:25:00,63.6,63.0,30.23,ESE,113,0.0,0.0,98,0.15,,,0.66,Wunderground v.1.15,2013-07-04 12:25:00,
2013-07-04 08:30:00,63.7,63.1,30.23,ESE,113,0.0,0.0,98,0.07,,,0.66,Wunderground v.1.15,2013-07-04 12:30:00,
2013-07-04 08:35:00,63.8,63.2,30.24,ESE,113,0.0,0.0,98,0.31,,,0.69,Wunderground v.1.15,2013-07-04 12:35:00,
2013-07-04 08:40:00,63.9,63.3,30.23,ESE,113,0.0,0.0,98,0.62,,,0.73,Wunderground v.1.15,2013-07-04 12:40:00,
2013-07-04 08:45:00,64.0,63.4,30.23,ESE,113,0.0,0.0,98,0.20,,,0.75,Wunderground v.1.15,2013-07-04 12:45:00,
2013-07-04 08:49:00,64.1,63.5,30.23,ESE,113,0.0,0.0,98,0.12,,,0.76,Wunderground v.1.15,2013-07-04 12:49:00,
2013-07-04 08:54:00,64.3,63.7,30.23,ESE,113,0.0,0.0,98,0.08,,,0.76,Wunderground v.1.15,2013-07-04 12:54:00,
2013-07-04 08:59:00,64.4,63.8,30.23,ESE,113,0.0,0.0,98,0.05,,,0.76,Wunderground v.1.15,2013-07-04 12:59:00,
2013-07-04 09:05:00,64.6,64.0,30.23,ESE,113,0.0,0.0,98,0.00,,,0.76,Wunderground v.1.15,2013-07-04 13:05:00,
2013-07-04 09:10:00,64.7,64.1,30.23,ESE,113,0.0,0.0,98,0.43,,,0.78,Wunderground v.1.15,2013-07-04 13:10:00,
2013-07-04 09:15:00,64.7,64.1,30.23,ESE,113,0.0,0.0,98,0.21,,,0.82,Wunderground v.1.15,2013-07-04 13:15:00,
2013-07-04 09:20:00,64.7,64.1,30.23,ESE,110,0.0,0.0,98,0.11,,,0.82,Wunderground v.1.15,2013-07-04 13:20:00,
2013-07-04 09:25:00,64.7,64.1,30.23,ESE,116,0.0,0.0,98,0.06,,,0.82,Wunderground v.1.15,2013-07-04 13:25:00,
2013-07-04 09:30:00,64.7,64.1,30.23,ESE,116,0.0,0.0,98,0.04,,,0.82,Wunderground v.1.15,2013-07-04 13:30:00,
2013-07-04 09:35:00,64.8,64.2,30.23,ESE,116,0.0,0.0,98,0.00,,,0.82,Wunderground v.1.15,2013-07-04 13:35:00,
2013-07-04 09:40:00,64.8,64.2,30.23,ESE,110,0.0,0.0,98,0.00,,,0.82,Wunderground v.1.15,2013-07-04 13:40:00,
2013-07-04 09:45:00,64.8,64.2,30.23,ESE,110,0.0,0.0,98,0.00,,,0.82,Wunderground v.1.15,2013-07-04 13:45:00,
2013-07-04 09:55:00,64.9,64.3,30.23,ESE,110,0.0,0.0,98,0.00,,,0.82,Wunderground v.1.15,2013-07-04 13:55:00,
2013-07-04 10:00:00,64.9,64.3,30.23,SE,132,0.0,0.0,98,0.18,,,0.85,Wunderground v.1.15,2013-07-04 14:00:00,
2013-07-04 10:05:00,65.1,64.5,30.23,SE,136,0.0,0.0,98,0.07,,,0.85,Wunderground v.1.15,2013-07-04 14:05:00,
2013-07-04 10:09:00,65.2,64.6,30.23,SE,136,0.0,0.0,98,0.05,,,0.85,Wunderground v.1.15,2013-07-04 14:09:00,
2013-07-04 10:14:00,65.2,64.6,30.23,ESE,119,0.0,0.0,98,0.00,,,0.85,Wunderground v.1.15,2013-07-04 14:14:00,
2013-07-04 10:20:00,65.2,64.6,30.22,South,182,0.0,0.0,98,0.00,,,0.85,Wunderground v.1.15,2013-07-04 14:20:00,
2013-07-04 10:25:00,65.2,64.6,30.22,South,182,0.0,0.0,98,0.00,,,0.85,Wunderground v.1.15,2013-07-04 14:25:00,
2013-07-04 10:30:00,65.4,64.8,30.22,South,182,0.0,0.0,98,0.00,,,0.85,Wunderground v.1.15,2013-07-04 14:30:00,
2013-07-04 10:40:00,65.5,64.9,30.22,SSE,167,0.0,0.0,98,0.00,,,0.86,Wunderground v.1.15,2013-07-04 14:40:00,
2013-07-04 10:45:00,65.5,64.9,30.22,SSE,167,0.0,0.0,98,0.25,,,0.90,Wunderground v.1.15,2013-07-04 14:45:00,
2013-07-04 10:49:00,65.6,65.0,30.22,SSE,156,0.0,0.0,98,0.08,,,0.90,Wunderground v.1.15,2013-07-04 14:49:00,
2013-07-04 10:54:00,65.6,65.0,30.23,SSE,156,0.0,0.0,98,0.05,,,0.90,Wunderground v.1.15,2013-07-04 14:54:00,
2013-07-04 11:00:00,65.6,65.0,30.22,East,81,0.0,0.0,98,0.04,,,0.91,Wunderground v.1.15,2013-07-04 15:00:00,
2013-07-04 11:05:00,65.7,65.1,30.22,East,82,0.0,0.0,98,0.04,,,0.91,Wunderground v.1.15,2013-07-04 15:05:00,
2013-07-04 11:09:00,65.9,65.3,30.22,ENE,67,0.0,0.0,98,0.05,,,0.92,Wunderground v.1.15,2013-07-04 15:09:00,
2013-07-04 11:14:00,66.0,65.4,30.22,ENE,67,0.0,0.0,98,0.05,,,0.92,Wunderground v.1.15,2013-07-04 15:14:00,
2013-07-04 11:20:00,66.1,65.5,30.22,ENE,77,0.0,0.0,98,0.05,,,0.92,Wunderground v.1.15,2013-07-04 15:20:00,
2013-07-04 11:25:00,66.3,65.7,30.22,ENE,77,0.0,0.0,98,0.00,,,0.92,Wunderground v.1.15,2013-07-04 15:25:00,
2013-07-04 11:30:00,66.5,65.9,30.22,ENE,77,0.0,0.0,98,0.00,,,0.92,Wunderground v.1.15,2013-07-04 15:30:00,
2013-07-04 11:34:00,66.6,66.0,30.22,ESE,104,0.0,0.0,98,0.00,,,0.92,Wunderground v.1.15,2013-07-04 15:34:00,
2013-07-04 11:40:00,66.8,66.2,30.22,ENE,69,0.0,1.0,98,0.00,,,0.92,Wunderground v.1.15,2013-07-04 15:40:00,
2013-07-04 11:45:00,66.9,66.3,30.22,East,91,0.0,1.0,98,0.00,,,0.92,Wunderground v.1.15,2013-07-04 15:45:00,
2013-07-04 11:49:00,66.9,66.3,30.22,East,82,1.0,1.0,98,0.00,,,0.92,Wunderground v.1.15,2013-07-04 15:49:00,
2013-07-04 11:54:00,66.9,66.3,30.22,SSE,150,1.0,1.0,98,0.00,,,0.92,Wunderground v.1.15,2013-07-04 15:54:00,
2013-07-04 12:00:00,67.0,66.4,30.22,ENE,61,1.0,4.0,98,0.00,,,0.92,Wunderground v.1.15,2013-07-04 16:00:00,
2013-07-04 12:05:00,67.2,66.6,30.22,SSW,209,1.0,4.0,98,0.00,,,0.92,Wunderground v.1.15,2013-07-04 16:05:00,
2013-07-04 12:10:00,67.6,67.0,30.21,SSW,196,1.0,1.0,98,0.00,,,0.92,Wunderground v.1.15,2013-07-04 16:10:00,
2013-07-04 12:15:00,68.0,67.4,30.21,SSW,196,1.0,1.0,98,0.00,,,0.92,Wunderground v.1.15,2013-07-04 16:15:00,
2013-07-04 12:20:00,68.4,67.8,30.21,South,188,0.0,2.0,98,0.00,,,0.92,Wunderground v.1.15,2013-07-04 16:20:00,
2013-07-04 12:25:00,68.8,68.2,30.21,South,182,1.0,2.0,98,0.00,,,0.92,Wunderground v.1.15,2013-07-04 16:25:00,
2013-07-04 12:30:00,69.0,68.4,30.21,NE,38,1.0,2.0,98,0.00,,,0.92,Wunderground v.1.15,2013-07-04 16:30:00,
2013-07-04 12:35:00,69.1,68.5,30.21,SSW,200,1.0,2.0,98,0.00,,,0.92,Wunderground v.1.15,2013-07-04 16:35:00,
2013-07-04 12:40:00,69.3,68.7,30.21,South,187,2.0,2.0,98,0.00,,,0.92,Wunderground v.1.15,2013-07-04 16:40:00,
2013-07-04 12:45:00,69.4,68.8,30.21,South,187,1.0,2.0,98,0.00,,,0.92,Wunderground v.1.15,2013-07-04 16:45:00,
2013-07-04 12:49:00,69.5,68.9,30.21,SSE,165,1.0,1.0,98,0.00,,,0.92,Wunderground v.1.15,2013-07-04 16:49:00,
2013-07-04 12:54:00,69.7,69.1,30.21,East,92,1.0,1.0,98,0.00,,,0.92,Wunderground v.1.15,2013-07-04 16:54:00,
2013-07-04 13:00:00,69.8,69.2,30.20,South,169,1.0,1.0,98,0.00,,,0.92,Wunderground v.1.15,2013-07-04 17:00:00,
2013-07-04 13:05:00,69.9,69.0,30.20,SSE,157,1.0,2.0,97,0.00,,,0.92,Wunderground v.1.15,2013-07-04 17:05:00,
2013-07-04 13:14:00,70.3,69.4,30.20,SSW,211,1.0,3.0,97,0.00,,,0.92,Wunderground v.1.15,2013-07-04 17:14:00,
2013-07-04 13:19:00,70.4,69.5,30.19,SSW,213,1.0,1.0,97,0.00,,,0.92,Wunderground v.1.15,2013-07-04 17:19:00,
2013-07-04 13:25:00,70.4,69.5,30.19,ENE,78,2.0,2.0,97,0.00,,,0.92,Wunderground v.1.15,2013-07-04 17:25:00,
2013-07-04 13:30:00,70.4,69.2,30.19,East,79,1.0,1.0,96,0.00,,,0.92,Wunderground v.1.15,2013-07-04 17:30:00,
2013-07-04 13:35:00,70.5,69.6,30.19,ENE,57,1.0,1.0,97,0.00,,,0.92,Wunderground v.1.15,2013-07-04 17:35:00,
2013-07-04 13:40:00,70.6,69.7,30.19,ESE,104,1.0,1.0,97,0.00,,,0.92,Wunderground v.1.15,2013-07-04 17:40:00,
2013-07-04 13:45:00,70.6,69.7,30.18,ESE,104,1.0,1.0,97,0.00,,,0.92,Wunderground v.1.15,2013-07-04 17:45:00,
2013-07-04 13:50:00,70.8,69.9,30.18,ESE,103,0.0,1.0,97,0.00,,,0.92,Wunderground v.1.15,2013-07-04 17:50:00,
2013-07-04 13:55:00,70.9,70.0,30.18,ESE,103,0.0,1.0,97,0.00,,,0.92,Wunderground v.1.15,2013-07-04 17:55:00,
2013-07-04 14:05:00,70.8,69.6,30.18,ESE,113,1.0,1.0,96,0.00,,,0.93,Wunderground v.1.15,2013-07-04 18:05:00,
2013-07-04 14:10:00,70.6,69.7,30.18,ESE,113,1.0,1.0,97,0.12,,,0.94,Wunderground v.1.15,2013-07-04 18:10:00,
2013-07-04 14:15:00,70.5,69.6,30.17,ESE,113,1.0,1.0,97,0.06,,,0.94,Wunderground v.1.15,2013-07-04 18:15:00,
2013-07-04 14:24:00,70.4,69.5,30.18,ESE,113,1.0,1.0,97,0.00,,,0.94,Wunderground v.1.15,2013-07-04 18:24:00,
2013-07-04 14:30:00,70.3,69.4,30.17,South,171,1.0,1.0,97,0.00,,,0.94,Wunderground v.1.15,2013-07-04 18:30:00,
2013-07-04 14:34:00,70.3,69.4,30.17,South,171,1.0,1.0,97,0.00,,,0.94,Wunderground v.1.15,2013-07-04 18:34:00,
2013-07-04 14:40:00,70.2,69.3,30.18,South,171,0.0,0.0,97,0.00,,,0.94,Wunderground v.1.15,2013-07-04 18:40:00,
2013-07-04 14:44:00,70.1,69.5,30.18,South,171,0.0,0.0,98,0.00,,,0.94,Wunderground v.1.15,2013-07-04 18:44:00,
2013-07-04 14:50:00,70.1,69.5,30.18,SE,131,0.0,1.0,98,0.00,,,0.94,Wunderground v.1.15,2013-07-04 18:50:00,
2013-07-04 14:55:00,70.1,69.5,30.17,SE,131,0.0,1.0,98,0.00,,,0.94,Wunderground v.1.15,2013-07-04 18:55:00,
2013-07-04 15:00:00,70.1,69.5,30.17,South,177,1.0,1.0,98,0.45,,,0.96,Wunderground v.1.15,2013-07-04 19:00:00,
2013-07-04 15:05:00,70.1,69.5,30.17,South,177,1.0,1.0,98,1.13,,,1.01,Wunderground v.1.15,2013-07-04 19:05:00,
2013-07-04 15:10:00,70.1,69.5,30.17,NE,55,1.0,1.0,98,0.13,,,1.02,Wunderground v.1.15,2013-07-04 19:10:00,
2013-07-04 15:15:00,70.2,69.6,30.17,East,79,1.0,2.0,98,0.06,,,1.02,Wunderground v.1.15,2013-07-04 19:15:00,
2013-07-04 15:19:00,70.2,69.6,30.17,SSE,150,1.0,1.0,98,0.04,,,1.02,Wunderground v.1.15,2013-07-04 19:19:00,
2013-07-04 15:25:00,70.2,69.6,30.17,SSE,150,1.0,1.0,98,0.00,,,1.03,Wunderground v.1.15,2013-07-04 19:25:00,
2013-07-04 15:30:00,70.3,69.7,30.16,NNE,28,1.0,1.0,98,0.00,,,1.03,Wunderground v.1.15,2013-07-04 19:30:00,
2013-07-04 15:34:00,70.5,70.2,30.16,NNW,346,0.0,1.0,99,0.00,,,1.03,Wunderground v.1.15,2013-07-04 19:34:00,
2013-07-04 15:39:00,70.7,70.1,30.16,NNW,346,0.0,1.0,98,0.00,,,1.03,Wunderground v.1.15,2013-07-04 19:39:00,
2013-07-04 15:44:00,70.8,70.2,30.16,NNW,346,1.0,1.0,98,0.00,,,1.03,Wunderground v.1.15,2013-07-04 19:44:00,
2013-07-04 15:50:00,71.1,70.5,30.16,NNW,329,1.0,1.0,98,0.00,,,1.03,Wunderground v.1.15,2013-07-04 19:50:00,
2013-07-04 15:55:00,71.2,70.6,30.16,West,265,1.0,1.0,98,0.00,,,1.04,Wunderground v.1.15,2013-07-04 19:55:00,
2013-07-04 16:00:00,71.2,70.6,30.16,West,265,1.0,1.0,98,0.00,,,1.04,Wunderground v.1.15,2013-07-04 20:00:00,
2013-07-04 16:05:00,71.2,70.6,30.17,West,265,1.0,1.0,98,0.00,,,1.04,Wunderground v.1.15,2013-07-04 20:05:00,
2013-07-04 16:10:00,71.3,70.7,30.17,West,265,1.0,1.0,98,0.00,,,1.04,Wunderground v.1.15,2013-07-04 20:10:00,
2013-07-04 16:15:00,71.3,70.7,30.17,East,101,1.0,2.0,98,0.00,,,1.04,Wunderground v.1.15,2013-07-04 20:15:00,
2013-07-04 16:20:00,71.0,70.1,30.17,SSW,204,1.0,1.0,97,0.00,,,1.05,Wunderground v.1.15,2013-07-04 20:20:00,
2013-07-04 16:25:00,70.5,69.3,30.16,ENE,74,2.0,2.0,96,0.82,,,1.08,Wunderground v.1.15,2013-07-04 20:25:00,
2013-07-04 16:30:00,69.9,68.1,30.17,SE,135,2.0,2.0,94,0.14,,,1.10,Wunderground v.1.15,2013-07-04 20:30:00,
2013-07-04 16:40:00,69.0,67.8,30.16,SE,135,1.0,1.0,96,0.05,,,1.11,Wunderground v.1.15,2013-07-04 20:40:00,
2013-07-04 16:45:00,68.7,67.8,30.15,SE,135,1.0,1.0,97,0.05,,,1.11,Wunderground v.1.15,2013-07-04 20:45:00,
2013-07-04 16:49:00,68.5,67.6,30.15,SE,135,1.0,1.0,97,0.05,,,1.11,Wunderground v.1.15,2013-07-04 20:49:00,
2013-07-04 16:54:00,68.3,67.4,30.16,SE,135,1.0,1.0,97,0.42,,,1.13,Wunderground v.1.15,2013-07-04 20:54:00,
2013-07-04 16:59:00,68.1,67.2,30.17,SE,135,1.0,1.0,97,0.17,,,1.15,Wunderground v.1.15,2013-07-04 20:59:00,
2013-07-04 17:05:00,68.0,67.4,30.18,South,188,1.0,2.0,98,0.12,,,1.16,Wunderground v.1.15,2013-07-04 21:05:00,
2013-07-04 17:10:00,68.1,67.5,30.18,WSW,238,1.0,1.0,98,0.29,,,1.18,Wunderground v.1.15,2013-07-04 21:10:00,
2013-07-04 17:15:00,68.1,67.5,30.18,WSW,238,1.0,1.0,98,2.26,,,1.22,Wunderground v.1.15,2013-07-04 21:15:00,
2013-07-04 17:25:00,68.0,67.4,30.17,WSW,238,1.0,1.0,98,0.07,,,1.24,Wunderground v.1.15,2013-07-04 21:25:00,
2013-07-04 17:30:00,67.9,67.3,30.17,WSW,238,0.0,0.0,98,0.04,,,1.24,Wunderground v.1.15,2013-07-04 21:30:00,
2013-07-04 17:40:00,68.0,67.4,30.17,WSW,238,0.0,0.0,98,0.00,,,1.24,Wunderground v.1.15,2013-07-04 21:40:00,
2013-07-04 17:49:00,68.4,67.8,30.17,WSW,238,0.0,0.0,98,0.00,,,1.24,Wunderground v.1.15,2013-07-04 21:49:00,
2013-07-04 17:54:00,68.4,67.8,30.18,WSW,238,0.0,0.0,98,1.31,,,1.27,Wunderground v.1.15,2013-07-04 21:54:00,
2013-07-04 17:59:00,68.4,67.8,30.17,WSW,238,0.0,1.0,98,0.31,,,1.31,Wunderground v.1.15,2013-07-04 21:59:00,
2013-07-04 18:05:00,68.4,67.8,30.17,WSW,238,0.0,1.0,98,0.09,,,1.31,Wunderground v.1.15,2013-07-04 22:05:00,
2013-07-04 18:09:00,68.3,67.7,30.16,WSW,238,0.0,0.0,98,0.88,,,1.35,Wunderground v.1.15,2013-07-04 22:09:00,
2013-07-04 18:14:00,68.3,67.7,30.16,West,268,1.0,1.0,98,0.17,,,1.38,Wunderground v.1.15,2013-07-04 22:14:00,
2013-07-04 18:19:00,68.2,67.6,30.17,SW,233,1.0,1.0,98,0.08,,,1.39,Wunderground v.1.15,2013-07-04 22:19:00,
2013-07-04 18:25:00,68.1,67.5,30.18,SW,218,1.0,3.0,98,0.62,,,1.45,Wunderground v.1.15,2013-07-04 22:25:00,
2013-07-04 18:30:00,67.9,67.3,30.18,ESE,103,2.0,4.0,98,0.45,,,1.50,Wunderground v.1.15,2013-07-04 22:30:00,
2013-07-04 18:35:00,67.7,66.8,30.18,ENE,74,2.0,4.0,97,0.18,,,1.51,Wunderground v.1.15,2013-07-04 22:35:00,
2013-07-04 18:40:00,67.5,66.6,30.18,ESE,103,1.0,1.0,97,0.13,,,1.52,Wunderground v.1.15,2013-07-04 22:40:00,
2013-07-04 18:45:00,67.3,66.4,30.18,ESE,103,0.0,1.0,97,0.26,,,1.54,Wunderground v.1.15,2013-07-04 22:45:00,
2013-07-04 18:50:00,67.2,66.6,30.18,ESE,103,0.0,0.0,98,0.10,,,1.55,Wunderground v.1.15,2013-07-04 22:50:00,
2013-07-04 18:55:00,67.1,66.5,30.18,ENE,78,0.0,2.0,98,0.10,,,1.55,Wunderground v.1.15,2013-07-04 22:55:00,
2013-07-04 19:00:00,67.0,66.4,30.18,East,99,0.0,1.0,98,0.06,,,1.55,Wunderground v.1.15,2013-07-04 23:00:00,
2013-07-04 19:05:00,67.0,66.4,30.18,ENE,67,0.0,1.0,98,0.04,,,1.55,Wunderground v.1.15,2013-07-04 23:05:00,
2013-07-04 19:09:00,67.0,66.4,30.18,East,100,0.0,1.0,98,0.00,,,1.56,Wunderground v.1.15,2013-07-04 23:09:00,
2013-07-04 19:14:00,67.0,66.4,30.18,East,97,1.0,1.0,98,0.19,,,1.60,Wunderground v.1.15,2013-07-04 23:14:00,
2013-07-04 19:20:00,67.0,66.4,30.19,ESE,115,1.0,1.0,98,0.07,,,1.60,Wunderground v.1.15,2013-07-04 23:20:00,
2013-07-04 19:25:00,67.0,66.4,30.19,ESE,115,1.0,1.0,98,1.23,,,1.63,Wunderground v.1.15,2013-07-04 23:25:00,
2013-07-04 19:29:00,66.9,66.3,30.19,ESE,115,1.0,1.0,98,0.31,,,1.67,Wunderground v.1.15,2013-07-04 23:29:00,
2013-07-04 19:35:00,66.8,66.2,30.19,ESE,115,1.0,1.0,98,0.36,,,1.72,Wunderground v.1.15,2013-07-04 23:35:00,
2013-07-04 19:40:00,66.8,66.2,30.19,ESE,115,0.0,1.0,98,0.09,,,1.72,Wunderground v.1.15,2013-07-04 23:40:00,
2013-07-04 19:45:00,66.7,66.1,30.19,ESE,115,0.0,1.0,98,0.68,,,1.75,Wunderground v.1.15,2013-07-04 23:45:00,
2013-07-04 19:50:00,66.6,66.0,30.19,ESE,104,0.0,0.0,98,0.21,,,1.78,Wunderground v.1.15,2013-07-04 23:50:00,
2013-07-04 19:55:00,66.5,65.9,30.19,ESE,104,0.0,2.0,98,0.11,,,1.79,Wunderground v.1.15,2013-07-04 23:55:00,
2013-07-04 20:00:00,66.4,65.8,30.19,ESE,104,0.0,0.0,98,0.16,,,1.80,Wunderground v.1.15,2013-07-05 00:00:00,
2013-07-04 20:05:00,66.3,65.7,30.19,ESE,104,1.0,1.0,98,2.54,,,1.92,Wunderground v.1.15,2013-07-05 00:05:00,
2013-07-04 20:09:00,66.1,65.5,30.19,SSE,167,1.0,1.0,98,0.32,,,1.99,Wunderground v.1.15,2013-07-05 00:09:00,
2013-07-04 20:14:00,66.0,65.4,30.18,SSE,167,0.0,1.0,98,0.30,,,2.03,Wunderground v.1.15,2013-07-05 00:14:00,
2013-07-04 20:20:00,65.9,65.3,30.18,SSE,167,0.0,0.0,98,0.08,,,2.03,Wunderground v.1.15,2013-07-05 00:20:00,
2013-07-04 20:25:00,65.9,65.3,30.19,SSE,167,0.0,1.0,98,0.05,,,2.03,Wunderground v.1.15,2013-07-05 00:25:00,
2013-07-04 20:30:00,65.9,65.3,30.17,East,84,1.0,1.0,98,0.56,,,2.18,Wunderground v.1.15,2013-07-05 00:30:00,
2013-07-04 20:35:00,65.9,65.3,30.17,East,84,1.0,1.0,98,0.58,,,2.20,Wunderground v.1.15,2013-07-05 00:35:00,
2013-07-04 20:40:00,65.9,65.3,30.17,East,84,0.0,0.0,98,0.11,,,2.20,Wunderground v.1.15,2013-07-05 00:40:00,
2013-07-04 20:45:00,65.9,65.3,30.18,East,84,0.0,0.0,98,0.06,,,2.20,Wunderground v.1.15,2013-07-05 00:45:00,
2013-07-04 20:54:00,65.8,65.2,30.18,East,91,0.0,0.0,98,1.13,,,2.24,Wunderground v.1.15,2013-07-05 00:54:00,
2013-07-04 21:00:00,65.8,65.2,30.18,East,91,0.0,1.0,98,0.15,,,2.27,Wunderground v.1.15,2013-07-05 01:00:00,
2013-07-04 21:05:00,65.9,65.3,30.18,East,91,0.0,1.0,98,0.07,,,2.27,Wunderground v.1.15,2013-07-05 01:05:00,
2013-07-04 21:09:00,65.9,65.3,30.19,East,91,0.0,1.0,98,1.36,,,2.32,Wunderground v.1.15,2013-07-05 01:09:00,
2013-07-04 21:14:00,65.9,65.3,30.19,East,91,0.0,1.0,98,0.12,,,2.32,Wunderground v.1.15,2013-07-05 01:14:00,
2013-07-04 21:20:00,66.0,65.4,30.19,ENE,69,1.0,1.0,98,0.10,,,2.33,Wunderground v.1.15,2013-07-05 01:20:00,
2013-07-04 21:25:00,66.0,65.7,30.18,ENE,69,1.0,1.0,99,0.06,,,2.33,Wunderground v.1.15,2013-07-05 01:25:00,
2013-07-04 21:30:00,66.0,65.7,30.19,East,89,0.0,0.0,99,0.04,,,2.33,Wunderground v.1.15,2013-07-05 01:30:00,
2013-07-04 21:35:00,66.0,65.7,30.19,ENE,73,0.0,1.0,99,0.00,,,2.33,Wunderground v.1.15,2013-07-05 01:35:00,
2013-07-04 21:40:00,66.0,65.7,30.19,ENE,73,1.0,1.0,99,0.00,,,2.33,Wunderground v.1.15,2013-07-05 01:40:00,
2013-07-04 21:45:00,66.1,65.8,30.19,East,82,1.0,1.0,99,0.00,,,2.33,Wunderground v.1.15,2013-07-05 01:45:00,
2013-07-04 21:54:00,66.1,65.8,30.20,East,82,0.0,2.0,99,0.00,,,2.33,Wunderground v.1.15,2013-07-05 01:54:00,
2013-07-04 22:00:00,66.1,65.8,30.19,NE,52,1.0,1.0,99,0.00,,,2.33,Wunderground v.1.15,2013-07-05 02:00:00,
2013-07-04 22:05:00,66.1,65.8,30.19,NE,51,1.0,1.0,99,0.00,,,2.33,Wunderground v.1.15,2013-07-05 02:05:00,
2013-07-04 22:10:00,66.1,65.8,30.19,ENE,69,1.0,1.0,99,0.00,,,2.33,Wunderground v.1.15,2013-07-05 02:10:00,
2013-07-04 22:14:00,66.1,65.8,30.20,ENE,69,0.0,1.0,99,0.00,,,2.33,Wunderground v.1.15,2013-07-05 02:14:00,
2013-07-04 22:20:00,66.1,65.8,30.20,ENE,69,0.0,0.0,99,0.00,,,2.33,Wunderground v.1.15,2013-07-05 02:20:00,
2013-07-04 22:25:00,66.1,65.8,30.20,ENE,69,0.0,0.0,99,0.00,,,2.33,Wunderground v.1.15,2013-07-05 02:25:00,
2013-07-04 22:30:00,66.1,65.8,30.20,ENE,69,0.0,1.0,99,0.00,,,2.33,Wunderground v.1.15,2013-07-05 02:30:00,
2013-07-04 22:35:00,66.1,65.8,30.20,ENE,69,0.0,1.0,99,0.00,,,2.33,Wunderground v.1.15,2013-07-05 02:35:00,
2013-07-04 22:40:00,66.1,65.8,30.20,ENE,78,1.0,2.0,99,0.00,,,2.33,Wunderground v.1.15,2013-07-05 02:40:00,
2013-07-04 22:45:00,66.1,65.8,30.20,ENE,78,1.0,2.0,99,0.00,,,2.33,Wunderground v.1.15,2013-07-05 02:45:00,
2013-07-04 22:50:00,66.1,65.8,30.20,SSE,159,1.0,1.0,99,0.00,,,2.33,Wunderground v.1.15,2013-07-05 02:50:00,
2013-07-04 22:55:00,66.1,65.8,30.21,SE,126,1.0,1.0,99,0.00,,,2.33,Wunderground v.1.15,2013-07-05 02:55:00,
2013-07-04 23:00:00,66.2,65.9,30.20,ENE,65,1.0,1.0,99,0.00,,,2.33,Wunderground v.1.15,2013-07-05 03:00:00,
2013-07-04 23:05:00,66.2,65.9,30.20,East,81,0.0,1.0,99,0.00,,,2.33,Wunderground v.1.15,2013-07-05 03:05:00,
2013-07-04 23:10:00,66.3,66.0,30.20,East,83,0.0,1.0,99,0.00,,,2.33,Wunderground v.1.15,2013-07-05 03:10:00,
2013-07-04 23:15:00,66.3,66.0,30.20,East,83,0.0,1.0,99,0.00,,,2.33,Wunderground v.1.15,2013-07-05 03:15:00,
2013-07-04 23:19:00,66.3,66.0,30.20,East,83,0.0,0.0,99,0.00,,,2.33,Wunderground v.1.15,2013-07-05 03:19:00,
2013-07-04 23:24:00,66.2,65.9,30.20,East,83,0.0,0.0,99,0.00,,,2.33,Wunderground v.1.15,2013-07-05 03:24:00,
2013-07-04 23:29:00,66.2,65.9,30.20,East,83,0.0,0.0,99,0.00,,,2.33,Wunderground v.1.15,2013-07-05 03:29:00,
2013-07-04 23:35:00,66.2,65.9,30.19,East,83,0.0,0.0,99,0.00,,,2.33,Wunderground v.1.15,2013-07-05 03:35:00,
2013-07-04 23:40:00,66.3,66.0,30.20,East,83,0.0,0.0,99,0.00,,,2.33,Wunderground v.1.15,2013-07-05 03:40:00,
2013-07-04 23:44:00,66.3,66.0,30.20,East,83,0.0,0.0,99,0.00,,,2.33,Wunderground v.1.15,2013-07-05 03:44:00,
2013-07-04 23:50:00,66.3,66.0,30.20,East,83,0.0,0.0,99,0.00,,,2.33,Wunderground v.1.15,2013-07-05 03:50:00,
2013-07-04 23:55:00,66.3,66.0,30.21,East,83,0.0,0.0,99,0.00,,,2.33,Wunderground v.1.15,2013-07-05 03:55:00,